Theta_e
340 346 349 348 346 347 346 348 348 348 345 345 345 345 346 344 343 343 344 344 344 344 344 342 340 339 338 339 342 341 341 340 339 338 339 338 338 337 336 338 338 332 336
343 347 347 347 347 348 348 348 348 347 347 346 346 346 345 343 341 340 341 341 340 342 341 341 338 338 338 337 340 340 339 339 338 339 340 339 339 337 336 335 338 333 335
343 346 348 346 347 348 348 348 347 347 347 345 346 345 344 342 340 339 339 341 338 339 340 339 338 337 338 337 338 338 338 337 336 337 339 333 334 336 335 335 336 334 333
345 346 347 343 346 349 348 347 347 347 347 346 345 344 343 341 339 338 338 337 337 337 338 336 336 336 338 338 337 336 334 333 333 334 333 331 331 335 334 333 334 334 332
345 345 346 343 347 348 348 347 347 347 346 346 344 343 340 339 338 337 337 337 336 336 337 335 336 336 336 337 337 335 333 331 332 331 330 334 334 335 334 333 331 332 334
343 344 342 345 348 347 347 346 347 347 346 346 343 340 339 338 337 338 337 337 335 335 336 336 334 335 334 334 334 333 331 330 332 325 329 334 336 336 334 333 331 331 332
341 345 344 345 346 347 347 347 346 346 345 344 343 342 342 341 340 340 339 338 336 335 334 335 334 334 333 331 330 329 327 326 325 324 325 326 331 331 331 331 330 330 329
341 343 342 339 341 344 345 345 345 345 345 344 343 342 342 341 339 339 339 339 337 335 334 334 333 331 330 330 328 326 325 326 324 324 325 326 328 332 330 329 329 329 328
341 340 337 344 342 337 340 341 342 343 343 343 343 341 339 338 338 338 339 340 337 335 333 332 331 330 329 328 327 326 326 325 323 323 323 325 327 329 331 331 329 328 329
339 337 338 340 342 344 344 335 337 339 339 339 339 336 333 333 333 334 334 336 337 336 334 332 331 330 329 329 328 328 327 327 325 323 323 323 323 326 329 330 332 330 330
336 338 340 340 340 341 342 338 333 333 335 335 335 330 329 332 333 331 329 332 336 335 336 335 333 332 332 330 330 328 326 325 324 323 323 324 323 327 328 329 331 332 331
334 336 338 339 339 339 338 342 342 342 341 340 339 338 335 334 332 331 327 328 331 331 332 332 333 332 328 328 329 327 327 326 325 324 323 324 323 325 329 329 329 331 332
334 336 337 337 338 339 338 340 339 340 338 337 335 336 336 333 333 333 332 330 331 325 329 330 330 329 329 329 327 326 326 326 325 325 325 325 325 327 329 330 330 331 331
336 336 336 338 337 338 339 338 338 337 336 335 335 334 335 334 333 331 330 330 332 331 329 330 329 329 328 328 327 327 328 327 326 326 324 323 325 328 330 331 331 332 332
334 336 334 338 336 337 337 336 337 337 336 336 335 336 334 332 332 331 330 330 330 330 329 328 328 327 328 328 328 328 327 327 327 326 327 319 324 327 329 331 332 333 333
334 335 336 335 338 337 335 336 336 336 337 336 336 336 335 333 333 331 329 329 329 330 330 329 328 328 328 329 328 329 329 329 329 329 330 330 323 326 329 331 332 333 334
334 335 335 334 336 337 336 336 336 336 336 336 334 334 335 335 333 332 331 330 330 330 329 329 328 329 328 329 328 329 329 329 329 329 330 330 330 322 325 329 331 332 333
334 334 336 334 334 335 335 336 336 336 335 335 336 335 335 334 334 332 330 330 331 330 329 329 327 326 326 326 326 327 328 328 329 330 330 331 331 330 327 327 329 329 330
334 334 334 333 331 333 335 336 337 336 335 335 335 335 335 334 334 333 332 331 331 330 329 327 327 326 324 324 324 324 325 326 328 329 330 330 331 331 331 328 323 323 326
335 335 336 334 331 333 334 337 336 335 335 335 335 334 335 334 334 334 333 333 333 330 328 328 327 328 326 326 324 324 327 328 330 330 329 329 329 329 330 330 330 326 319
333 334 335 334 334 332 333 333 332 331 333 334 336 336 336 335 335 335 333 332 331 330 329 329 327 325 325 327 324 323 326 328 328 328 328 327 328 328 329 329 329 329 328
332 333 334 334 335 337 337 333 332 331 335 334 335 335 336 337 336 335 334 332 332 330 329 329 328 325 325 326 322 322 315 320 323 324 326 325 325 327 327 327 327 327 329
327 331 332 333 335 336 337 335 334 335 335 333 333 334 337 337 337 336 335 332 331 331 329 330 328 325 323 326 325 320 314 313 318 323 323 323 324 324 325 325 325 326 327
310 319 332 333 334 335 337 334 331 331 330 332 333 336 336 337 336 335 334 332 331 331 330 330 331 329 327 322 325 323 323 321 314 313 321 322 323 322 323 324 325 326 327
304 308 311 327 333 334 335 334 333 331 333 334 334 335 333 334 334 334 333 332 331 330 330 329 327 327 327 325 323 322 320 321 321 317 312 317 321 322 323 324 326 326 327
305 303 306 308 320 330 333 332 332 330 332 331 332 331 330 331 330 326 329 329 329 328 328 328 329 326 326 325 325 324 320 318 318 317 315 315 316 320 322 324 324 325 326
Wind_Speed
13 19 19 19 19 17 16 16 16 15 15 14 12 11 15 14 13 12 11 12 13 14 15 15 14 14 13 14 16 17 16 16 15 16 16 16 16 16 15 16 11 12 14
18 20 18 18 17 17 16 15 15 15 15 14 13 15 15 13 12 11 11 11 10 12 13 14 13 12 12 13 14 14 14 13 10 7 12 16 14 15 14 14 13 11 11
19 19 19 17 17 16 15 15 14 15 14 14 14 14 14 12 12 12 11 11 10 10 13 12 13 12 12 13 14 13 13 10 6 5 4 10 12 13 13 12 12 12 10
18 18 18 15 17 17 16 15 14 14 15 15 14 14 13 12 11 11 11 11 10 10 12 12 12 12 12 12 13 13 11 9 4 8 4 9 11 12 12 11 10 10 7
18 17 17 15 16 17 17 15 14 13 15 15 14 12 11 11 11 11 10 10 10 10 11 11 11 11 12 11 11 11 9 5 4 2 7 9 3 10 11 10 9 9 11
17 15 18 15 15 18 17 15 14 15 14 14 13 11 11 12 11 11 10 9 10 9 10 10 9 10 11 11 10 9 7 6 9 6 6 8 10 9 9 8 7 7 7
13 13 17 12 14 16 15 14 14 15 13 13 14 12 11 11 9 12 11 12 11 9 9 9 8 8 9 8 8 7 6 7 6 5 5 5 8 7 6 6 5 5 5
15 15 16 12 13 14 14 13 12 12 12 12 13 14 12 10 9 9 8 10 14 11 8 8 7 6 6 6 6 6 5 6 3 4 3 4 5 5 4 3 3 3 3
16 15 15 14 14 12 11 11 10 10 10 11 12 13 11 10 9 6 7 9 10 12 8 7 6 5 5 4 4 4 3 6 8 3 2 1 5 4 4 2 1 1 2
15 16 15 12 13 14 13 10 9 8 8 8 8 8 12 9 9 6 6 7 9 11 9 7 6 5 3 3 2 1 2 7 7 2 2 4 3 3 4 5 5 4 4
13 14 16 16 14 11 13 11 9 8 7 7 7 7 7 7 8 10 7 10 7 6 7 9 8 6 4 5 5 3 5 5 3 3 3 7 1 5 6 7 6 8 7
15 16 13 14 14 11 8 13 11 10 9 9 9 10 8 7 9 7 8 6 5 5 4 7 7 5 5 6 6 8 6 3 4 4 3 5 2 7 7 7 8 8 10
14 9 14 11 13 12 8 8 6 6 6 7 10 9 9 6 5 4 4 5 6 6 6 7 6 6 8 4 4 4 4 4 4 3 2 6 4 8 9 9 10 11 11
18 16 11 13 10 11 8 8 9 7 7 7 9 11 7 5 5 6 5 6 6 5 7 5 4 5 5 6 6 6 6 5 5 3 5 9 7 9 11 12 12 13 13
17 18 14 14 12 10 9 8 8 8 8 9 9 10 8 8 6 7 6 5 6 6 6 6 6 5 6 7 6 7 6 7 7 4 4 9 9 11 13 14 15 15 15
16 17 17 13 12 11 10 9 7 7 8 8 7 8 11 8 7 7 6 6 6 6 6 6 6 6 6 6 6 7 7 7 8 7 6 6 11 12 14 15 16 16 17
15 16 17 16 12 12 11 9 6 6 8 8 7 10 11 10 8 7 5 6 6 6 7 6 6 6 6 6 7 7 7 8 8 9 7 6 6 12 13 15 15 17 17
15 16 16 12 12 11 10 8 6 6 6 6 7 7 9 10 10 7 6 5 4 5 6 6 6 6 5 5 5 6 5 6 8 9 8 7 6 7 7 14 13 14 15
15 15 15 14 15 13 11 10 9 10 8 7 7 6 8 10 10 9 6 5 6 5 5 5 3 3 3 4 4 7 8 8 9 8 9 9 8 6 5 6 11 11 13
14 15 15 13 14 12 9 8 7 7 7 8 8 6 10 10 12 9 7 7 7 7 5 3 5 4 4 4 4 5 7 7 7 7 8 6 5 5 5 5 4 5 12
13 15 16 16 15 11 9 9 7 7 7 8 9 12 11 10 12 10 7 7 6 6 7 7 6 5 5 6 4 6 7 7 9 7 5 5 4 5 5 5 4 4 4
14 15 16 16 16 15 11 8 5 5 8 9 8 10 12 11 11 10 9 7 6 5 6 6 7 4 3 3 3 3 4 3 3 3 4 5 6 4 4 5 6 6 5
13 15 14 15 15 15 15 9 7 7 9 8 8 8 9 11 10 10 10 9 9 6 5 7 6 7 4 5 6 4 2 3 4 3 4 4 5 4 5 5 6 5 5
7 7 12 14 15 14 15 11 12 11 9 9 9 8 7 10 11 12 12 11 10 5 5 5 6 7 7 5 3 3 4 3 3 5 3 3 6 7 5 5 5 5 5
7 4 6 9 12 13 13 14 10 10 8 8 7 7 8 6 8 10 9 9 9 6 4 4 4 8 6 6 5 3 4 5 7 6 8 6 4 3 4 4 4 5 6
5 3 5 7 10 9 8 12 10 11 10 5 4 4 3 4 3 5 4 2 0 0 2 3 5 5 5 6 4 4 4 4 3 2 4 7 8 6 4 2 4 3 3
Wind_Direction
147 144 150 151 154 154 153 149 143 138 140 144 139 142 134 122 113 105 100 98 96 98 96 90 88 82 82 79 77 78 76 75 76 81 82 72 69 67 57 36 68 68 55
144 148 149 151 156 155 155 153 148 144 147 148 138 138 124 119 112 108 107 102 106 109 101 93 90 84 85 89 87 83 79 74 73 84 109 93 68 67 64 56 49 65 60
142 144 155 152 157 155 153 152 150 150 150 156 145 134 129 125 122 117 114 107 110 118 108 102 91 85 88 93 88 83 79 72 46 345 241 94 79 69 67 63 59 64 63
142 150 153 153 160 157 150 153 155 156 150 146 143 136 130 130 129 122 119 115 117 120 111 109 91 85 84 95 83 81 74 66 19 316 63 58 87 71 69 66 62 50 67
139 160 143 155 160 158 154 160 158 159 151 145 135 131 136 135 128 123 120 118 124 121 118 113 93 85 83 83 85 78 68 45 335 326 55 49 78 83 72 52 68 57 34
149 133 139 156 156 158 158 159 154 156 151 139 132 144 141 137 133 133 128 121 125 126 115 106 104 90 86 85 83 78 61 353 305 65 82 79 51 86 75 66 61 55 42
127 139 153 151 156 157 158 159 159 158 152 142 146 147 147 159 157 139 147 141 121 118 124 116 112 99 92 89 83 74 50 354 9 64 73 68 64 62 67 65 58 50 40
153 143 152 153 154 156 159 162 162 160 157 156 156 152 165 145 119 133 139 149 135 129 127 126 122 115 107 97 85 71 40 346 280 68 59 66 61 26 69 65 57 39 23
152 150 156 163 157 148 155 161 165 168 165 167 166 163 153 145 130 130 120 133 141 122 144 141 142 141 130 115 98 73 28 332 305 45 330 108 73 4 342 331 174 298 283
153 161 160 159 170 166 166 157 162 167 174 180 174 157 144 142 137 147 149 138 130 139 154 157 158 159 150 138 126 108 291 279 271 281 248 86 68 314 310 312 303 225 256
165 171 166 163 180 170 169 160 148 146 146 150 145 142 161 167 174 161 188 141 149 157 172 173 175 178 188 199 197 211 267 265 297 287 284 109 35 297 291 282 289 286 262
178 176 170 173 173 162 171 157 178 167 175 184 180 168 196 184 186 191 151 160 178 190 195 214 193 185 223 251 188 200 236 285 282 280 283 121 283 281 282 285 276 278 278
177 189 176 180 181 164 172 165 178 178 189 188 188 187 206 191 175 193 176 188 202 194 214 195 203 225 238 276 287 276 292 284 276 280 261 150 244 266 268 270 268 269 269
180 182 203 180 185 176 182 180 184 179 189 186 189 186 183 191 185 199 208 195 201 188 224 232 235 245 254 250 263 276 278 281 278 290 289 175 214 255 264 266 266 265 266
189 182 185 209 186 186 190 191 191 191 188 195 188 190 191 192 190 204 204 204 202 210 211 224 226 231 233 242 251 255 264 267 267 266 269 181 206 241 259 262 263 263 264
193 193 183 193 205 190 196 193 193 196 188 198 194 192 203 200 193 203 208 212 215 217 214 224 229 224 231 239 250 256 262 269 270 268 266 267 210 225 243 256 262 264 265
199 194 191 189 195 212 198 201 199 198 200 200 197 203 200 209 206 206 207 214 218 218 229 227 234 237 249 251 259 257 259 263 265 268 266 264 267 222 230 242 253 260 262
204 196 187 178 190 202 204 200 202 200 201 204 203 201 202 207 215 209 217 217 219 221 227 234 237 246 251 258 262 275 276 281 277 267 267 265 259 267 232 227 238 253 265
207 199 187 187 195 191 211 204 206 206 204 208 209 205 199 210 211 217 213 210 213 211 220 232 229 230 256 257 261 268 275 269 268 270 261 259 261 263 264 266 216 235 253
205 202 193 183 200 192 197 215 207 205 208 211 209 205 209 206 208 211 220 218 214 216 219 181 239 247 248 289 296 269 263 258 260 263 267 272 277 273 266 264 258 244 227
210 209 199 189 195 189 195 202 205 203 205 211 212 209 207 208 204 207 215 218 209 217 225 222 223 224 232 230 260 272 262 257 256 247 259 259 257 251 249 257 263 259 266
215 213 209 208 196 194 188 197 187 195 222 217 211 212 210 208 209 205 210 215 205 206 217 225 202 218 228 236 254 301 293 300 194 274 239 246 273 271 258 260 256 260 262
218 219 217 213 207 206 204 166 203 198 214 211 215 218 212 213 209 209 210 215 218 207 217 205 196 206 227 233 206 249 278 249 358 189 226 226 249 253 271 282 276 263 258
233 251 235 219 214 208 203 186 195 205 200 216 209 213 205 206 216 215 217 219 223 211 200 223 212 226 231 223 231 234 252 261 266 288 246 232 228 244 266 277 280 282 279
344 266 259 257 227 213 208 208 190 210 224 220 208 194 211 200 211 217 215 220 222 223 192 196 227 231 230 226 214 206 226 240 250 264 280 276 295 261 221 250 292 303 304
7 282 250 233 230 230 208 214 210 210 227 222 169 155 176 165 146 39 15 289 18 192 202 225 225 235 234 238 231 231 227 243 267 302 296 301 294 307 341 339 298 295 319